JES8142 SABE-SACO

Flight info

Callsign JES8142
Flight time 1h 52m
Altitude 34000
Route ATOVO4B ATOVO UW5 ASISA ASISA1Q
Aircraft A320/M-SDE3FGHIRWY/LB1

Departure

Time 2026-05-03 21:29
Airport Aeroparque Jorge Newbery (SABE)

Arrival

Time 2026-05-03 23:22
Airport Ingeniero Aeronáutico Ambrosio L.V. Taravella International Airport (SACO)
Time Latitude Longitude Altitude Speed Heading
2026-05-03 20:25 -34.55967 -58.41009 23 ft 0 kts 51°
2026-05-03 20:27 -34.55998 -58.40954 25 ft 0 kts 82°
2026-05-03 20:57 -34.55999 -58.40959 23 ft 1 kts 82°
2026-05-03 20:57 -34.55999 -58.40964 23 ft 1 kts 82°
2026-05-03 20:58 -34.56000 -58.40969 23 ft 1 kts 94°
2026-05-03 20:58 -34.56001 -58.40974 23 ft 1 kts 113°
2026-05-03 20:58 -34.56000 -58.40979 24 ft 1 kts 131°
2026-05-03 20:58 -34.55997 -58.40984 25 ft 1 kts 165°
2026-05-03 20:59 -34.55993 -58.40987 26 ft 0 kts 202°
2026-05-03 21:03 -34.55994 -58.40988 23 ft 0 kts 203°
2026-05-03 21:03 -34.56008 -58.41006 26 ft 9 kts 231°
2026-05-03 21:03 -34.56069 -58.41043 26 ft 11 kts 167°
2026-05-03 21:04 -34.56114 -58.40986 25 ft 2 kts 126°
2026-05-03 21:04 -34.56117 -58.40980 24 ft 0 kts 126°
2026-05-03 21:04 -34.56122 -58.40972 23 ft 4 kts 126°
2026-05-03 21:05 -34.56136 -58.40949 23 ft 0 kts 125°
2026-05-03 21:05 -34.56137 -58.40947 23 ft 0 kts 125°
2026-05-03 21:06 -34.56140 -58.40943 23 ft 2 kts 125°
2026-05-03 21:06 -34.56141 -58.40941 23 ft 0 kts 126°
2026-05-03 21:07 -34.56142 -58.40939 23 ft 1 kts 125°
2026-05-03 21:07 -34.56152 -58.40920 23 ft 4 kts 121°
2026-05-03 21:07 -34.56167 -58.40882 23 ft 6 kts 104°
2026-05-03 21:07 -34.56170 -58.40829 23 ft 6 kts 104°
2026-05-03 21:08 -34.56175 -58.40815 23 ft 1 kts 120°
2026-05-03 21:08 -34.56176 -58.40814 23 ft 0 kts 120°
2026-05-03 21:09 -34.56179 -58.40807 23 ft 4 kts 120°
2026-05-03 21:10 -34.56201 -58.40766 25 ft 2 kts 124°
2026-05-03 21:10 -34.56201 -58.40765 25 ft 0 kts 124°
2026-05-03 21:12 -34.56202 -58.40764 25 ft 1 kts 124°
2026-05-03 21:12 -34.56211 -58.40749 23 ft 3 kts 124°
2026-05-03 21:13 -34.56229 -58.40717 23 ft 6 kts 124°
2026-05-03 21:13 -34.56230 -58.40716 23 ft 0 kts 124°
2026-05-03 21:15 -34.56233 -58.40710 23 ft 4 kts 124°
2026-05-03 21:15 -34.56261 -58.40661 24 ft 8 kts 124°
2026-05-03 21:15 -34.56264 -58.40656 23 ft 0 kts 124°
2026-05-03 21:16 -34.56265 -58.40655 23 ft 2 kts 124°
2026-05-03 21:17 -34.56275 -58.40635 24 ft 0 kts 122°
2026-05-03 21:17 -34.56278 -58.40629 23 ft 3 kts 122°
2026-05-03 21:17 -34.56299 -58.40594 25 ft 0 kts 129°
2026-05-03 21:18 -34.56306 -58.40584 23 ft 3 kts 129°
2026-05-03 21:18 -34.56325 -58.40557 23 ft 6 kts 134°
2026-05-03 21:19 -34.56333 -58.40548 24 ft 0 kts 137°
2026-05-03 21:20 -34.56338 -58.40543 23 ft 0 kts 138°
2026-05-03 21:23 -34.56339 -58.40541 23 ft 1 kts 138°
2026-05-03 21:23 -34.56351 -58.40529 23 ft 2 kts 138°
2026-05-03 21:23 -34.56353 -58.40527 23 ft 0 kts 138°
2026-05-03 21:24 -34.56365 -58.40514 24 ft 4 kts 138°
2026-05-03 21:24 -34.56373 -58.40505 23 ft 0 kts 138°
2026-05-03 21:24 -34.56378 -58.40499 23 ft 2 kts 138°
2026-05-03 21:25 -34.56397 -58.40479 23 ft 5 kts 138°
2026-05-03 21:25 -34.56413 -58.40461 23 ft 2 kts 137°
2026-05-03 21:25 -34.56413 -58.40460 23 ft 0 kts 137°
2026-05-03 21:27 -34.56417 -58.40456 23 ft 3 kts 137°
2026-05-03 21:28 -34.56445 -58.40425 23 ft 7 kts 137°
2026-05-03 21:28 -34.56472 -58.40395 23 ft 8 kts 137°
2026-05-03 21:28 -34.56528 -58.40382 23 ft 10 kts 210°
2026-05-03 21:28 -34.56545 -58.40459 23 ft 12 kts 297°
2026-05-03 21:29 -34.56486 -58.40561 23 ft 28 kts 306°
2026-05-03 21:29 -34.56198 -58.41077 26 ft 115 kts 304°
2026-05-03 21:29 -34.55638 -58.42083 287 ft 155 kts 305°
2026-05-03 21:29 -34.55038 -58.43205 1189 ft 160 kts 309°
2026-05-03 21:30 -34.54291 -58.44208 1947 ft 162 kts 322°
2026-05-03 21:30 -34.53305 -58.45005 2266 ft 181 kts 335°
2026-05-03 21:30 -34.52022 -58.45493 2580 ft 207 kts 350°
2026-05-03 21:30 -34.50500 -58.45491 3015 ft 233 kts
2026-05-03 21:31 -34.48911 -58.44786 3648 ft 253 kts 27°
2026-05-03 21:31 -34.47393 -58.43638 4495 ft 260 kts 28°
2026-05-03 21:31 -34.45832 -58.42462 5352 ft 267 kts 28°
2026-05-03 21:31 -34.44239 -58.41250 6204 ft 273 kts 28°
2026-05-03 21:32 -34.42613 -58.40005 7013 ft 280 kts 28°
2026-05-03 21:32 -34.40936 -58.38712 7833 ft 285 kts 28°
2026-05-03 21:32 -34.39256 -58.37400 8646 ft 290 kts 28°
2026-05-03 21:32 -34.37554 -58.36059 9453 ft 295 kts 28°
2026-05-03 21:33 -34.35761 -58.34850 10204 ft 295 kts 14°
2026-05-03 21:33 -34.33703 -58.34497 10459 ft 307 kts 350°
2026-05-03 21:33 -34.31575 -58.35050 10802 ft 319 kts 340°
2026-05-03 21:33 -34.29420 -58.35798 11417 ft 325 kts 339°
2026-05-03 21:34 -34.27229 -58.36568 12096 ft 330 kts 339°
2026-05-03 21:34 -34.25011 -58.37348 12761 ft 335 kts 339°
2026-05-03 21:34 -34.22760 -58.38142 13435 ft 339 kts 339°
2026-05-03 21:34 -34.20477 -58.38945 14066 ft 344 kts 339°
2026-05-03 21:35 -34.18160 -58.39755 14648 ft 349 kts 339°
2026-05-03 21:35 -34.15816 -58.40564 15232 ft 352 kts 339°
2026-05-03 21:35 -34.13442 -58.41375 15813 ft 356 kts 339°
2026-05-03 21:35 -34.11042 -58.42185 16394 ft 360 kts 339°
2026-05-03 21:36 -34.08585 -58.43010 16995 ft 363 kts 338°
2026-05-03 21:36 -34.06301 -58.44238 17547 ft 358 kts 321°
2026-05-03 21:36 -34.04484 -58.46231 18091 ft 352 kts 303°
2026-05-03 21:36 -34.03303 -58.48785 18623 ft 348 kts 286°
2026-05-03 21:37 -34.02852 -58.51627 19151 ft 346 kts 269°
2026-05-03 21:37 -34.02963 -58.54526 19701 ft 347 kts 265°
2026-05-03 21:37 -34.03124 -58.57438 20264 ft 349 kts 265°
2026-05-03 21:37 -34.03292 -58.60373 20808 ft 352 kts 265°
2026-05-03 21:38 -34.03459 -58.63324 21332 ft 354 kts 265°
2026-05-03 21:38 -34.03621 -58.66295 21848 ft 356 kts 265°
2026-05-03 21:38 -34.03780 -58.69283 22347 ft 359 kts 265°
2026-05-03 21:38 -34.03939 -58.72299 22848 ft 361 kts 265°
2026-05-03 21:39 -34.04098 -58.75330 23349 ft 364 kts 265°
2026-05-03 21:39 -34.04258 -58.78385 23811 ft 366 kts 265°
2026-05-03 21:39 -34.04418 -58.81454 24028 ft 367 kts 265°
2026-05-03 21:39 -34.04578 -58.84527 24128 ft 369 kts 265°
2026-05-03 21:40 -34.04737 -58.87617 24566 ft 370 kts 265°
2026-05-03 21:40 -34.04896 -58.90719 24995 ft 371 kts 264°
2026-05-03 21:40 -34.05056 -58.93836 25431 ft 373 kts 264°
2026-05-03 21:40 -34.05217 -58.96966 25848 ft 375 kts 264°
2026-05-03 21:41 -34.05377 -59.00109 26263 ft 377 kts 264°
2026-05-03 21:41 -34.05533 -59.03270 26677 ft 379 kts 264°
2026-05-03 21:41 -34.05690 -59.06488 27098 ft 380 kts 264°
2026-05-03 21:41 -34.05828 -59.09629 27503 ft 382 kts 267°
2026-05-03 21:42 -34.05588 -59.12838 27884 ft 388 kts 278°
2026-05-03 21:42 -34.04766 -59.16006 28270 ft 396 kts 289°
2026-05-03 21:42 -34.03391 -59.18929 28626 ft 407 kts 300°
2026-05-03 21:42 -34.01590 -59.21605 28985 ft 413 kts 303°
2026-05-03 21:43 -33.99741 -59.24269 29343 ft 416 kts 303°
2026-05-03 21:43 -33.97879 -59.26946 29723 ft 418 kts 303°
2026-05-03 21:43 -33.96004 -59.29638 30086 ft 421 kts 303°
2026-05-03 21:43 -33.94120 -59.32344 30406 ft 423 kts 303°
2026-05-03 21:44 -33.92228 -59.35063 30738 ft 424 kts 303°
2026-05-03 21:44 -33.90327 -59.37791 31062 ft 426 kts 303°
2026-05-03 21:44 -33.88421 -59.40523 31442 ft 426 kts 303°
2026-05-03 21:44 -33.86518 -59.43246 31868 ft 425 kts 303°
2026-05-03 21:45 -33.84620 -59.45964 32307 ft 424 kts 303°
2026-05-03 21:45 -33.82725 -59.48675 32749 ft 423 kts 303°
2026-05-03 21:45 -33.80835 -59.51376 33194 ft 422 kts 302°
2026-05-03 21:45 -33.78950 -59.54070 33651 ft 420 kts 302°
2026-05-03 21:46 -33.77068 -59.56761 34005 ft 421 kts 302°
2026-05-03 21:46 -33.75193 -59.59442 34076 ft 416 kts 302°
2026-05-03 21:46 -33.71494 -59.64721 34049 ft 411 kts 302°
2026-05-03 21:47 -33.67805 -59.69977 34073 ft 412 kts 302°
2026-05-03 21:47 -33.64107 -59.75231 34068 ft 412 kts 302°
2026-05-03 21:48 -33.60379 -59.80510 34068 ft 412 kts 302°
2026-05-03 21:48 -33.56670 -59.85750 34068 ft 412 kts 302°
2026-05-03 21:49 -33.52961 -59.90986 34052 ft 412 kts 302°
2026-05-03 21:49 -33.49249 -59.96224 34059 ft 412 kts 302°
2026-05-03 21:50 -33.45537 -60.01458 34068 ft 412 kts 302°
2026-05-03 21:50 -33.41824 -60.06685 34066 ft 412 kts 302°
2026-05-03 21:51 -33.38106 -60.11906 34051 ft 412 kts 302°
2026-05-03 21:51 -33.34383 -60.17119 34055 ft 412 kts 302°
2026-05-03 21:52 -33.30666 -60.22339 34056 ft 412 kts 303°
2026-05-03 21:52 -33.26950 -60.27551 34063 ft 412 kts 303°
2026-05-03 21:53 -33.23224 -60.32753 34061 ft 412 kts 303°
2026-05-03 21:53 -33.19477 -60.37979 34044 ft 412 kts 303°
2026-05-03 21:54 -33.15750 -60.43167 34046 ft 412 kts 303°
2026-05-03 21:54 -33.12020 -60.48356 34046 ft 412 kts 303°
2026-05-03 21:55 -33.08292 -60.53535 34051 ft 411 kts 303°
2026-05-03 21:55 -33.04559 -60.58714 34060 ft 411 kts 303°
2026-05-03 21:56 -33.00831 -60.63880 34051 ft 411 kts 303°
2026-05-03 21:56 -32.97098 -60.69045 34055 ft 412 kts 303°
2026-05-03 21:57 -32.93357 -60.74208 34062 ft 412 kts 303°
2026-05-03 21:57 -32.89805 -60.79548 34065 ft 402 kts 294°
2026-05-03 21:58 -32.86986 -60.85282 34068 ft 402 kts 293°
2026-05-03 21:58 -32.84158 -60.91014 34065 ft 402 kts 294°
2026-05-03 21:59 -32.81322 -60.96735 34054 ft 402 kts 294°
2026-05-03 21:59 -32.78486 -61.02455 34045 ft 402 kts 294°
2026-05-03 22:00 -32.76127 -61.07203 34055 ft 401 kts 294°
2026-05-03 22:00 -32.73291 -61.12910 34053 ft 401 kts 294°
2026-05-03 22:01 -32.70455 -61.18613 34035 ft 401 kts 294°
2026-05-03 22:01 -32.67613 -61.24312 34036 ft 401 kts 294°
2026-05-03 22:02 -32.64750 -61.30046 34041 ft 401 kts 294°
2026-05-03 22:02 -32.61902 -61.35739 34040 ft 401 kts 294°
2026-05-03 22:03 -32.59064 -61.41432 34045 ft 401 kts 294°
2026-05-03 22:03 -32.56216 -61.47115 34046 ft 401 kts 294°
2026-05-03 22:04 -32.53363 -61.52787 34031 ft 400 kts 294°
2026-05-03 22:04 -32.50512 -61.58454 34036 ft 400 kts 294°
2026-05-03 22:05 -32.47664 -61.64123 34040 ft 400 kts 294°
2026-05-03 22:05 -32.44803 -61.69783 34039 ft 401 kts 294°
2026-05-03 22:06 -32.41938 -61.75440 34040 ft 400 kts 294°
2026-05-03 22:06 -32.39075 -61.81089 34016 ft 400 kts 294°
2026-05-03 22:07 -32.36215 -61.86738 34030 ft 400 kts 294°
2026-05-03 22:07 -32.33353 -61.92378 34039 ft 400 kts 294°
2026-05-03 22:08 -32.30491 -61.98017 34041 ft 399 kts 294°
2026-05-03 22:08 -32.27612 -62.03682 34044 ft 399 kts 294°
2026-05-03 22:09 -32.24770 -62.09261 34047 ft 399 kts 294°
2026-05-03 22:10 -32.20453 -62.17704 34030 ft 398 kts 294°
2026-05-03 22:10 -32.17590 -62.23301 34031 ft 398 kts 294°
2026-05-03 22:11 -32.14729 -62.28895 34036 ft 398 kts 295°
2026-05-03 22:11 -32.11867 -62.34476 34025 ft 398 kts 295°
2026-05-03 22:12 -32.08991 -62.40087 34002 ft 401 kts 295°
2026-05-03 22:12 -32.06089 -62.45729 33987 ft 403 kts 295°
2026-05-03 22:13 -32.03168 -62.51390 33993 ft 405 kts 295°
2026-05-03 22:13 -32.00242 -62.57066 33300 ft 406 kts 295°
2026-05-03 22:13 -31.98775 -62.59908 32633 ft 406 kts 295°
2026-05-03 22:14 -31.97314 -62.62738 32055 ft 404 kts 295°
2026-05-03 22:14 -31.95856 -62.65548 31420 ft 398 kts 295°
2026-05-03 22:14 -31.94421 -62.68308 30534 ft 393 kts 295°
2026-05-03 22:14 -31.93003 -62.71040 29566 ft 389 kts 295°
2026-05-03 22:15 -31.91602 -62.73743 28583 ft 384 kts 295°
2026-05-03 22:15 -31.90218 -62.76411 27649 ft 379 kts 295°
2026-05-03 22:15 -31.88848 -62.79047 26811 ft 378 kts 295°
2026-05-03 22:15 -31.87484 -62.81673 26427 ft 373 kts 295°
2026-05-03 22:16 -31.86124 -62.84291 26030 ft 368 kts 295°
2026-05-03 22:16 -31.84796 -62.86847 25637 ft 365 kts 295°
2026-05-03 22:16 -31.83479 -62.89385 25239 ft 361 kts 295°
2026-05-03 22:16 -31.82174 -62.91896 24824 ft 359 kts 295°
2026-05-03 22:17 -31.80876 -62.94388 24438 ft 356 kts 295°
2026-05-03 22:17 -31.79587 -62.96859 24026 ft 353 kts 295°
2026-05-03 22:17 -31.78281 -62.99297 23627 ft 354 kts 300°
2026-05-03 22:17 -31.76482 -63.01316 23150 ft 366 kts 321°
2026-05-03 22:18 -31.74107 -63.02490 22700 ft 378 kts 342°
2026-05-03 22:18 -31.71479 -63.02666 22505 ft 379 kts 355°
2026-05-03 22:18 -31.68856 -63.02516 22137 ft 375 kts 357°
2026-05-03 22:18 -31.66264 -63.02349 21742 ft 372 kts 357°
2026-05-03 22:19 -31.63686 -63.02184 21350 ft 370 kts 357°
2026-05-03 22:19 -31.61127 -63.02023 20958 ft 367 kts 357°
2026-05-03 22:19 -31.58586 -63.01868 20568 ft 364 kts 357°
2026-05-03 22:19 -31.56066 -63.01717 20187 ft 362 kts 357°
2026-05-03 22:20 -31.53561 -63.01572 19814 ft 359 kts 357°
2026-05-03 22:20 -31.51073 -63.01430 19447 ft 357 kts 357°
2026-05-03 22:20 -31.48602 -63.01294 19089 ft 354 kts 357°
2026-05-03 22:20 -31.46144 -63.01163 18722 ft 352 kts 357°
2026-05-03 22:21 -31.43673 -63.01036 18355 ft 351 kts 357°
2026-05-03 22:21 -31.41242 -63.00919 17951 ft 349 kts 357°
2026-05-03 22:21 -31.38823 -63.00812 17570 ft 346 kts 356°
2026-05-03 22:21 -31.36480 -63.01101 17202 ft 333 kts 337°
2026-05-03 22:22 -31.34333 -63.02043 16812 ft 328 kts 332°
2026-05-03 22:22 -31.32237 -63.03077 16438 ft 326 kts 332°
2026-05-03 22:22 -31.30157 -63.04125 16078 ft 324 kts 332°
2026-05-03 22:22 -31.28094 -63.05177 15715 ft 323 kts 332°
2026-05-03 22:23 -31.26045 -63.06233 15367 ft 321 kts 332°
2026-05-03 22:23 -31.24014 -63.07293 15025 ft 319 kts 332°
2026-05-03 22:23 -31.21991 -63.08360 14671 ft 318 kts 332°
2026-05-03 22:23 -31.19888 -63.09170 14328 ft 321 kts 345°
2026-05-03 22:24 -31.17693 -63.09641 13999 ft 320 kts 346°
2026-05-03 22:24 -31.15504 -63.10085 13665 ft 318 kts 347°
2026-05-03 22:24 -31.13332 -63.10531 13314 ft 316 kts 347°
2026-05-03 22:24 -31.11173 -63.10979 12981 ft 314 kts 347°
2026-05-03 22:25 -31.09027 -63.11431 12629 ft 312 kts 347°
2026-05-03 22:25 -31.06896 -63.11885 12302 ft 310 kts 347°
2026-05-03 22:25 -31.04785 -63.12341 12048 ft 306 kts 347°
2026-05-03 22:25 -31.02685 -63.12799 12027 ft 308 kts 347°
2026-05-03 22:26 -31.00570 -63.13261 12034 ft 309 kts 346°
2026-05-03 22:26 -30.98427 -63.13724 12031 ft 310 kts 346°
2026-05-03 22:26 -30.96299 -63.14182 12037 ft 310 kts 346°
2026-05-03 22:26 -30.94177 -63.14638 12031 ft 310 kts 346°
2026-05-03 22:27 -30.92061 -63.15094 12027 ft 310 kts 346°
2026-05-03 22:27 -30.89931 -63.15552 12029 ft 310 kts 346°
2026-05-03 22:27 -30.87806 -63.16010 12031 ft 310 kts 346°
2026-05-03 22:27 -30.85689 -63.16494 12026 ft 309 kts 341°
2026-05-03 22:28 -30.83801 -63.17586 12031 ft 302 kts 320°
2026-05-03 22:28 -30.82176 -63.19133 12032 ft 302 kts 317°
2026-05-03 22:28 -30.80583 -63.20726 12033 ft 302 kts 316°
2026-05-03 22:28 -30.78990 -63.22326 12025 ft 302 kts 316°
2026-05-03 22:29 -30.77399 -63.23923 12035 ft 302 kts 316°
2026-05-03 22:29 -30.75806 -63.25523 12031 ft 302 kts 316°
2026-05-03 22:29 -30.74215 -63.27117 12030 ft 302 kts 316°
2026-05-03 22:29 -30.72623 -63.28713 12028 ft 302 kts 316°
2026-05-03 22:30 -30.71029 -63.30310 12030 ft 302 kts 316°
2026-05-03 22:30 -30.69437 -63.31904 12032 ft 302 kts 316°
2026-05-03 22:30 -30.68089 -63.33736 12029 ft 297 kts 295°
2026-05-03 22:30 -30.67419 -63.35987 12030 ft 295 kts 283°
2026-05-03 22:31 -30.66938 -63.38307 12031 ft 296 kts 282°
2026-05-03 22:31 -30.66624 -63.39878 12032 ft 296 kts 282°
2026-05-03 22:31 -30.66161 -63.42207 12033 ft 296 kts 282°
2026-05-03 22:31 -30.65698 -63.44535 12030 ft 296 kts 281°
2026-05-03 22:32 -30.65230 -63.46856 12032 ft 295 kts 282°
2026-05-03 22:32 -30.64761 -63.49179 12029 ft 295 kts 282°
2026-05-03 22:32 -30.64291 -63.51499 12031 ft 295 kts 282°
2026-05-03 22:32 -30.63822 -63.53823 12030 ft 296 kts 282°
2026-05-03 22:33 -30.63355 -63.56147 12030 ft 296 kts 282°
2026-05-03 22:33 -30.62885 -63.58472 12029 ft 295 kts 282°
2026-05-03 22:33 -30.62413 -63.60789 12028 ft 295 kts 282°
2026-05-03 22:33 -30.61941 -63.63112 12031 ft 295 kts 282°
2026-05-03 22:34 -30.61466 -63.65429 12031 ft 295 kts 282°
2026-05-03 22:34 -30.60994 -63.67739 12034 ft 294 kts 282°
2026-05-03 22:34 -30.60557 -63.70062 12025 ft 294 kts 276°
2026-05-03 22:34 -30.60383 -63.72425 12029 ft 294 kts 272°
2026-05-03 22:35 -30.60264 -63.74790 12031 ft 294 kts 272°
2026-05-03 22:35 -30.60148 -63.77155 12031 ft 293 kts 272°
2026-05-03 22:35 -30.60031 -63.79518 12030 ft 293 kts 272°
2026-05-03 22:35 -30.59911 -63.81879 12030 ft 293 kts 272°
2026-05-03 22:36 -30.59793 -63.84241 12030 ft 293 kts 272°
2026-05-03 22:36 -30.59674 -63.86603 12030 ft 293 kts 272°
2026-05-03 22:36 -30.59554 -63.88994 12030 ft 293 kts 272°
2026-05-03 22:36 -30.59434 -63.91354 12030 ft 293 kts 272°
2026-05-03 22:37 -30.59314 -63.93716 12030 ft 293 kts 272°
2026-05-03 22:37 -30.59194 -63.96076 12032 ft 293 kts 272°
2026-05-03 22:37 -30.59072 -63.98439 12030 ft 293 kts 272°
2026-05-03 22:37 -30.58951 -64.00798 12031 ft 293 kts 272°
2026-05-03 22:38 -30.58830 -64.03158 12032 ft 293 kts 272°
2026-05-03 22:38 -30.58707 -64.05514 12028 ft 292 kts 272°
2026-05-03 22:38 -30.58579 -64.07874 12032 ft 294 kts 272°
2026-05-03 22:38 -30.58450 -64.10241 12030 ft 294 kts 272°
2026-05-03 22:39 -30.58319 -64.12602 11844 ft 292 kts 272°
2026-05-03 22:39 -30.58216 -64.14946 11483 ft 290 kts 266°
2026-05-03 22:39 -30.58713 -64.17179 11136 ft 287 kts 241°
2026-05-03 22:39 -30.59986 -64.18943 11013 ft 288 kts 224°
2026-05-03 22:40 -30.61490 -64.20499 11030 ft 291 kts 222°
2026-05-03 22:40 -30.63017 -64.22043 11028 ft 291 kts 222°
2026-05-03 22:40 -30.64550 -64.23582 11029 ft 291 kts 222°
2026-05-03 22:40 -30.66081 -64.25120 11025 ft 291 kts 222°
2026-05-03 22:41 -30.67611 -64.26664 11023 ft 292 kts 222°
2026-05-03 22:41 -30.69140 -64.28208 11026 ft 291 kts 222°
2026-05-03 22:41 -30.70671 -64.29758 11026 ft 292 kts 222°
2026-05-03 22:41 -30.72219 -64.31327 11028 ft 292 kts 222°
2026-05-03 22:42 -30.73749 -64.32881 11029 ft 291 kts 222°
2026-05-03 22:42 -30.75276 -64.34428 11031 ft 291 kts 223°
2026-05-03 22:42 -30.76809 -64.35968 11027 ft 291 kts 223°
2026-05-03 22:42 -30.78341 -64.37498 11015 ft 291 kts 223°
2026-05-03 22:43 -30.79872 -64.39043 11026 ft 292 kts 223°
2026-05-03 22:43 -30.81403 -64.40594 11024 ft 292 kts 223°
2026-05-03 22:43 -30.82935 -64.42146 11020 ft 292 kts 223°
2026-05-03 22:43 -30.84463 -64.43703 11016 ft 292 kts 222°
2026-05-03 22:44 -30.86163 -64.44978 11017 ft 295 kts 202°
2026-05-03 22:44 -30.88197 -64.45364 11015 ft 299 kts 185°
2026-05-03 22:44 -30.90283 -64.45397 11021 ft 300 kts 183°
2026-05-03 22:44 -30.92369 -64.45396 11023 ft 300 kts 183°
2026-05-03 22:45 -30.94486 -64.45388 11024 ft 300 kts 183°
2026-05-03 22:45 -30.96577 -64.45379 11015 ft 300 kts 183°
2026-05-03 22:45 -30.98665 -64.45367 11015 ft 300 kts 183°
2026-05-03 22:45 -31.00755 -64.45355 11015 ft 300 kts 183°
2026-05-03 22:46 -31.02843 -64.45342 11019 ft 300 kts 182°
2026-05-03 22:46 -31.04933 -64.45332 11013 ft 301 kts 183°
2026-05-03 22:46 -31.07037 -64.45321 11014 ft 302 kts 183°
2026-05-03 22:46 -31.09143 -64.45320 11013 ft 303 kts 182°
2026-05-03 22:47 -31.11250 -64.45337 11008 ft 303 kts 183°
2026-05-03 22:47 -31.13356 -64.45355 11012 ft 303 kts 183°
2026-05-03 22:47 -31.15460 -64.45372 11013 ft 303 kts 183°
2026-05-03 22:47 -31.17567 -64.45388 11013 ft 303 kts 183°
2026-05-03 22:48 -31.19669 -64.45400 10905 ft 301 kts 183°
2026-05-03 22:48 -31.21755 -64.45414 10567 ft 299 kts 183°
2026-05-03 22:48 -31.23832 -64.45425 10272 ft 297 kts 183°
2026-05-03 22:48 -31.25892 -64.45421 10042 ft 294 kts 183°
2026-05-03 22:49 -31.27942 -64.45421 10007 ft 296 kts 183°
2026-05-03 22:49 -31.30002 -64.45435 10010 ft 296 kts 183°
2026-05-03 22:49 -31.32095 -64.45462 10010 ft 297 kts 183°
2026-05-03 22:49 -31.34162 -64.45489 10008 ft 297 kts 183°
2026-05-03 22:50 -31.36233 -64.45516 10008 ft 298 kts 183°
2026-05-03 22:50 -31.38295 -64.45545 9876 ft 295 kts 183°
2026-05-03 22:50 -31.40331 -64.45571 9298 ft 292 kts 183°
2026-05-03 22:50 -31.42378 -64.45598 8875 ft 294 kts 183°
2026-05-03 22:51 -31.44429 -64.45627 8487 ft 295 kts 183°
2026-05-03 22:51 -31.46484 -64.45645 8121 ft 296 kts 183°
2026-05-03 22:51 -31.48543 -64.45658 7770 ft 296 kts 183°
2026-05-03 22:51 -31.50601 -64.45672 7432 ft 296 kts 183°
2026-05-03 22:52 -31.52661 -64.45691 7095 ft 295 kts 183°
2026-05-03 22:52 -31.54729 -64.45643 6993 ft 294 kts 174°
2026-05-03 22:52 -31.56641 -64.44806 7000 ft 296 kts 146°
2026-05-03 22:52 -31.58051 -64.43080 7000 ft 296 kts 119°
2026-05-03 22:53 -31.58699 -64.40813 7005 ft 294 kts 97°
2026-05-03 22:53 -31.58928 -64.38436 7005 ft 294 kts 93°
2026-05-03 22:53 -31.59117 -64.36043 7007 ft 296 kts 93°
2026-05-03 22:53 -31.59310 -64.33640 6815 ft 296 kts 92°
2026-05-03 22:54 -31.59532 -64.31245 6506 ft 295 kts 93°
2026-05-03 22:54 -31.59763 -64.28853 6173 ft 295 kts 93°
2026-05-03 22:54 -31.59995 -64.26481 6000 ft 291 kts 93°
2026-05-03 22:54 -31.60224 -64.24117 6004 ft 292 kts 93°
2026-05-03 22:55 -31.60457 -64.21746 6010 ft 293 kts 93°
2026-05-03 22:55 -31.60687 -64.19367 6008 ft 293 kts 92°
2026-05-03 22:55 -31.60545 -64.17027 5854 ft 284 kts 69°
2026-05-03 22:55 -31.59886 -64.14866 5535 ft 280 kts 63°
2026-05-03 22:56 -31.59164 -64.12759 5255 ft 277 kts 63°
2026-05-03 22:56 -31.58446 -64.10678 5036 ft 274 kts 63°
2026-05-03 22:56 -31.57727 -64.08598 5008 ft 275 kts 63°
2026-05-03 22:56 -31.56985 -64.06534 5013 ft 273 kts 58°
2026-05-03 22:57 -31.55843 -64.04820 5006 ft 264 kts 35°
2026-05-03 22:57 -31.54265 -64.03789 5012 ft 252 kts 12°
2026-05-03 22:57 -31.52558 -64.03559 5016 ft 245 kts 353°
2026-05-03 22:57 -31.50866 -64.03802 5015 ft 245 kts 351°
2026-05-03 22:58 -31.49180 -64.04053 5012 ft 240 kts 351°
2026-05-03 22:58 -31.47575 -64.04288 5010 ft 225 kts 351°
2026-05-03 22:58 -31.46062 -64.04508 5011 ft 215 kts 349°
2026-05-03 22:58 -31.44692 -64.05116 5023 ft 213 kts 324°
2026-05-03 22:59 -31.43742 -64.06457 4964 ft 221 kts 296°
2026-05-03 22:59 -31.43461 -64.08229 4643 ft 227 kts 274°
2026-05-03 22:59 -31.43459 -64.10116 4104 ft 233 kts 274°
2026-05-03 22:59 -31.43470 -64.11934 4002 ft 213 kts 274°
2026-05-03 23:00 -31.43482 -64.13618 4004 ft 203 kts 275°
2026-05-03 23:00 -31.43432 -64.15248 4003 ft 197 kts 288°
2026-05-03 23:00 -31.42872 -64.16644 4014 ft 187 kts 314°
2026-05-03 23:00 -31.41941 -64.17521 4018 ft 159 kts 332°
2026-05-03 23:01 -31.41036 -64.18147 4005 ft 146 kts 332°
2026-05-03 23:01 -31.40179 -64.18742 4003 ft 142 kts 332°
2026-05-03 23:01 -31.39337 -64.19329 4007 ft 140 kts 332°
2026-05-03 23:01 -31.38499 -64.19910 4008 ft 140 kts 332°
2026-05-03 23:02 -31.37918 -64.20261 4008 ft 139 kts 339°
2026-05-03 23:02 -31.37005 -64.20611 4009 ft 138 kts 348°
2026-05-03 23:02 -31.36054 -64.20754 4012 ft 138 kts 358°
2026-05-03 23:02 -31.35097 -64.20757 4006 ft 138 kts
2026-05-03 23:03 -31.34177 -64.20241 4032 ft 169 kts 36°
2026-05-03 23:03 -31.33217 -64.19182 4017 ft 202 kts 41°
2026-05-03 23:03 -31.32238 -64.17980 4009 ft 205 kts 43°
2026-05-03 23:03 -31.31252 -64.16767 4010 ft 206 kts 43°
2026-05-03 23:04 -31.30260 -64.15554 4012 ft 207 kts 43°
2026-05-03 23:04 -31.29273 -64.14341 4010 ft 205 kts 42°
2026-05-03 23:04 -31.28299 -64.13124 4011 ft 205 kts 43°
2026-05-03 23:04 -31.27329 -64.11911 4009 ft 205 kts 43°
2026-05-03 23:05 -31.26343 -64.10701 4010 ft 206 kts 43°
2026-05-03 23:05 -31.25351 -64.09488 4007 ft 206 kts 42°
2026-05-03 23:05 -31.24425 -64.08211 4010 ft 208 kts 53°
2026-05-03 23:05 -31.23711 -64.06727 4099 ft 212 kts 58°
2026-05-03 23:06 -31.23036 -64.05192 4909 ft 214 kts 58°
2026-05-03 23:06 -31.22370 -64.03595 5722 ft 218 kts 58°
2026-05-03 23:06 -31.21844 -64.01909 6526 ft 228 kts 75°
2026-05-03 23:06 -31.21703 -64.00033 7244 ft 235 kts 83°
2026-05-03 23:07 -31.21637 -63.98096 7816 ft 242 kts 84°
2026-05-03 23:07 -31.21559 -63.96123 7974 ft 243 kts 83°
2026-05-03 23:07 -31.21287 -63.94194 8015 ft 238 kts 64°
2026-05-03 23:07 -31.20513 -63.92511 8022 ft 234 kts 50°
2026-05-03 23:08 -31.19549 -63.90991 8024 ft 233 kts 48°
2026-05-03 23:08 -31.18551 -63.89498 8026 ft 233 kts 47°
2026-05-03 23:08 -31.17553 -63.88010 8026 ft 233 kts 47°
2026-05-03 23:08 -31.16646 -63.86430 8029 ft 237 kts 60°
2026-05-03 23:09 -31.16102 -63.84603 8032 ft 239 kts 71°
2026-05-03 23:09 -31.15981 -63.82669 8028 ft 245 kts 103°
2026-05-03 23:09 -31.16884 -63.81000 8033 ft 249 kts 144°
2026-05-03 23:09 -31.18469 -63.80324 8033 ft 243 kts 185°
2026-05-03 23:10 -31.20004 -63.80925 8031 ft 231 kts 227°
2026-05-03 23:10 -31.20786 -63.82454 8032 ft 218 kts 268°
2026-05-03 23:10 -31.20481 -63.84107 8030 ft 210 kts 309°
2026-05-03 23:10 -31.19288 -63.85012 8029 ft 212 kts 350°
2026-05-03 23:11 -31.17826 -63.84732 8039 ft 221 kts 19°
2026-05-03 23:11 -31.16331 -63.84273 8033 ft 217 kts 353°
2026-05-03 23:11 -31.15030 -63.85019 8488 ft 209 kts 306°
2026-05-03 23:11 -31.14656 -63.86535 9495 ft 202 kts 263°
2026-05-03 23:12 -31.15380 -63.88010 9747 ft 229 kts 216°
2026-05-03 23:12 -31.16987 -63.88512 9870 ft 267 kts 182°
2026-05-03 23:12 -31.18899 -63.88162 9704 ft 284 kts 169°
2026-05-03 23:12 -31.20822 -63.87691 9784 ft 286 kts 173°
2026-05-03 23:13 -31.22855 -63.87381 9570 ft 299 kts 178°
2026-05-03 23:13 -31.24930 -63.87281 9496 ft 305 kts 183°
2026-05-03 23:13 -31.27102 -63.87421 8979 ft 316 kts 189°
2026-05-03 23:13 -31.29270 -63.87795 8575 ft 313 kts 194°
2026-05-03 23:14 -31.31377 -63.88434 8117 ft 312 kts 201°
2026-05-03 23:14 -31.33405 -63.89337 7664 ft 312 kts 207°
2026-05-03 23:14 -31.35375 -63.90400 7264 ft 312 kts 208°
2026-05-03 23:14 -31.37330 -63.91494 6894 ft 310 kts 210°
2026-05-03 23:15 -31.39241 -63.92617 6669 ft 303 kts 212°
2026-05-03 23:15 -31.41063 -63.93801 6391 ft 298 kts 215°
2026-05-03 23:15 -31.42790 -63.95107 6108 ft 292 kts 222°
2026-05-03 23:15 -31.44169 -63.96735 5998 ft 272 kts 245°
2026-05-03 23:16 -31.44813 -63.98757 5531 ft 268 kts 264°
2026-05-03 23:16 -31.45018 -64.00892 5178 ft 263 kts 274°
2026-05-03 23:16 -31.45026 -64.03026 4942 ft 256 kts 279°
2026-05-03 23:16 -31.44823 -64.05042 4825 ft 244 kts 285°
2026-05-03 23:17 -31.44462 -64.06930 4514 ft 226 kts 289°
2026-05-03 23:17 -31.44098 -64.08566 4355 ft 196 kts 290°
2026-05-03 23:17 -31.43695 -64.10121 4304 ft 207 kts 292°
2026-05-03 23:17 -31.43205 -64.11721 4215 ft 204 kts 294°
2026-05-03 23:18 -31.42725 -64.13176 4109 ft 179 kts 296°
2026-05-03 23:18 -31.42292 -64.14466 3919 ft 163 kts 296°
2026-05-03 23:18 -31.41887 -64.15679 3668 ft 155 kts 297°
2026-05-03 23:18 -31.41524 -64.16791 3503 ft 138 kts 297°
2026-05-03 23:19 -31.41157 -64.17806 3237 ft 134 kts 304°
2026-05-03 23:19 -31.40668 -64.18713 2997 ft 130 kts 313°
2026-05-03 23:19 -31.40099 -64.19511 2886 ft 125 kts 323°
2026-05-03 23:19 -31.39421 -64.20129 2759 ft 122 kts 333°
2026-05-03 23:20 -31.38672 -64.20576 2540 ft 121 kts 345°
2026-05-03 23:20 -31.37848 -64.20778 2429 ft 121 kts 358°
2026-05-03 23:20 -31.36990 -64.20792 2388 ft 127 kts
2026-05-03 23:20 -31.36099 -64.20744 2290 ft 129 kts
2026-05-03 23:21 -31.35200 -64.20773 2106 ft 129 kts 359°
2026-05-03 23:21 -31.34305 -64.20777 1928 ft 128 kts
2026-05-03 23:21 -31.33401 -64.20796 1773 ft 131 kts
2026-05-03 23:21 -31.32510 -64.20810 1588 ft 125 kts
2026-05-03 23:22 -31.31568 -64.20830 1557 ft 21 kts 358°
2026-05-03 23:22 -31.31466 -64.20916 1561 ft 14 kts 278°
2026-05-03 23:22 -31.31465 -64.20945 1562 ft 4 kts 270°
2026-05-03 23:23 -31.31465 -64.20963 1563 ft 0 kts 267°
2026-05-03 23:23 -31.31465 -64.20972 1563 ft 0 kts 267°
2026-05-03 23:23 -31.31468 -64.20994 1563 ft 9 kts 258°
2026-05-03 23:24 -31.31503 -64.21062 1563 ft 11 kts 218°
2026-05-03 23:24 -31.31588 -64.21096 1561 ft 15 kts 198°
2026-05-03 23:24 -31.31664 -64.21106 1559 ft 10 kts 209°